GFSNIL_850_temp_183.txt.gz
Temp
10 10 10 9 8 7 7 8 7 7 6 7 5 4 4 3 2 3 3 2 2 3
9 9 9 9 9 7 8 8 6 6 5 4 5 4 3 3 3 3 2 2 2 2
7 8 8 8 8 7 6 6 5 4 3 4 4 3 3 2 2 2 2 2 2 1
8 7 7 6 6 5 5 5 5 4 4 4 3 2 3 3 3 2 2 2 2 2
7 6 6 6 5 5 5 5 5 5 4 4 3 3 2 2 2 2 2 1 1 1
7 6 6 6 6 6 5 5 5 5 4 3 2 2 2 1 1 1 0 0 0 0
6 6 6 6 6 6 5 5 4 4 3 3 2 1 1 1 1 1 1 0 -0 -0
6 6 6 6 6 6 5 5 4 4 3 3 2 2 1 2 1 0 0 -0 -1 -1
7 7 7 7 6 5 5 5 4 4 3 3 2 2 1 1 0 -0 -1 -2 -3 -2
7 7 7 6 5 5 5 4 4 3 3 3 2 2 1 0 0 -1 -2 -3 -4 -3
7 8 7 6 6 6 5 5 5 4 3 3 2 2 1 0 -0 -0 -1 -3 -4 -4
8 9 7 7 7 6 6 5 5 4 3 3 2 2 1 1 0 -1 -2 -3 -4 -4
10 9 8 8 7 7 6 6 5 4 3 2 2 2 2 1 0 -1 -2 -3 -5 -5
10 9 8 8 7 6 6 5 4 3 3 3 2 2 2 1 -0 -1 -3 -4 -5 -5

GFSNIL_850_temp_189.txt.gz
Temp
14 14 13 13 12 12 12 10 8 8 8 7 8 6 7 7 6 6 6 6 6 6
13 12 12 11 12 10 9 8 7 7 7 7 5 6 6 6 6 5 5 5 5 5
12 11 11 10 10 9 8 7 7 7 6 6 6 5 5 6 6 4 4 4 3 4
10 10 10 9 9 8 7 7 7 6 6 6 5 5 6 5 4 4 4 3 3 3
9 9 8 8 8 7 7 6 6 5 6 5 5 5 4 4 4 3 3 3 3 2
8 7 7 7 7 6 6 6 5 5 5 5 5 5 4 4 4 4 3 3 3 3
7 7 7 6 6 6 6 5 5 5 5 4 5 4 4 3 3 2 2 2 1 1
7 6 6 6 6 5 5 6 5 5 4 4 4 3 3 2 1 1 1 1 2 2
8 8 6 6 6 6 6 6 4 4 4 4 3 2 2 2 2 1 1 2 2 1
6 7 6 6 6 6 5 5 5 4 4 4 3 3 3 2 2 1 1 1 1 1
6 6 6 5 5 5 5 5 4 4 4 4 3 3 3 2 1 0 1 1 1 0
6 6 5 5 5 5 5 5 5 4 4 4 3 3 3 1 1 0 -0 1 1 -0
6 6 6 6 5 5 6 6 5 3 4 3 3 3 3 2 1 1 0 -0 -1 -1
5 5 6 6 6 5 4 4 4 4 4 2 3 3 2 2 1 1 0 -0 -1 -1

GFSNIL_850_temp_192.txt.gz
Temp
14 14 13 13 13 13 13 13 11 11 10 10 9 9 8 8 8 8 8 7 7 7
13 13 13 12 13 12 12 11 11 10 9 8 8 7 8 8 7 6 6 6 6 6
12 12 12 11 12 11 12 10 9 8 7 7 7 7 7 6 5 5 6 6 5 5
11 11 11 11 11 10 10 9 8 7 7 7 6 6 5 5 5 5 5 4 4 4
10 10 9 9 9 9 8 7 7 7 6 6 6 5 5 4 5 6 5 4 3 3
12 9 8 8 8 8 7 7 6 6 5 5 5 5 5 5 4 4 3 3 3 3
12 11 8 7 7 7 6 6 6 5 5 5 5 4 4 3 2 3 2 2 2 2
10 10 8 6 7 6 5 5 5 6 5 5 4 4 4 3 3 3 3 3 2 2
8 8 7 6 6 5 5 5 5 5 6 5 4 4 3 3 3 2 3 2 2 2
8 7 6 5 5 6 5 5 5 5 5 5 4 3 3 3 2 3 3 3 2 2
6 6 6 6 5 5 5 6 6 6 6 4 4 3 3 2 2 2 3 3 2 1
6 5 6 6 5 6 5 5 5 6 5 4 3 3 2 2 2 2 2 2 2 1
6 6 6 6 5 5 5 5 5 5 5 4 3 3 2 2 2 2 2 2 1 1
5 6 5 5 5 4 5 5 5 5 4 4 2 2 3 2 3 2 2 2 2 1

GFSNIL_850_temp_198.txt.gz
Temp
16 15 15 14 14 14 14 13 13 12 12 12 11 11 11 11 11 11 10 10 10 9
15 15 14 14 14 14 14 13 13 12 11 12 11 11 11 10 10 10 9 9 9 9
15 15 14 14 13 12 12 12 11 10 11 11 11 10 10 9 9 9 8 8 8 7
14 14 13 13 13 12 12 11 11 10 10 10 10 9 8 8 8 7 7 7 6 6
13 12 12 12 12 11 11 11 10 10 10 9 9 8 8 7 7 6 6 6 6 6
12 11 11 10 10 10 10 10 9 9 9 8 7 7 6 6 6 6 5 5 5 5
11 11 11 11 10 10 9 9 8 7 8 7 7 6 6 6 6 5 5 4 4 4
11 10 10 10 10 10 9 9 8 7 7 7 6 6 6 6 5 5 5 4 4 4
10 9 9 9 8 7 7 8 7 8 7 6 6 6 6 6 5 5 5 5 4 4
8 8 7 7 7 8 7 6 6 6 6 6 6 6 5 6 5 4 4 4 4 3
6 6 6 6 6 6 6 6 5 5 5 5 6 5 5 4 3 4 3 4 4 3
5 5 5 5 5 5 6 6 5 4 5 5 5 5 4 4 3 3 3 3 2 3
4 4 4 4 4 5 5 5 4 3 3 4 4 5 4 3 2 3 3 1 2 1
4 4 4 4 4 4 4 4 4 4 4 3 2 2 4 3 2 3 3 1 1 1

GFSNIL_850_temp_201.txt.gz
Temp
17 17 17 17 17 15 14 14 14 14 14 14 13 13 13 13 12 11 11 11 11 11
16 16 15 15 14 15 15 14 14 13 13 12 12 11 11 11 11 11 10 10 10 10
16 15 15 14 14 14 14 14 13 13 12 12 10 10 11 10 10 9 9 9 9 9
15 15 14 14 14 13 13 13 12 12 11 9 9 10 9 10 10 9 9 9 8 8
13 13 13 13 12 12 12 12 12 11 11 10 9 9 10 9 8 8 8 8 7 7
12 11 11 11 11 11 11 11 11 11 10 10 10 8 8 8 8 7 7 7 7 7
10 10 10 11 11 10 10 9 9 9 9 9 8 8 8 7 7 7 6 6 6 5
10 10 10 10 10 10 9 9 9 9 8 8 8 7 7 7 7 6 6 6 5 5
8 9 9 9 9 9 9 9 9 9 8 8 8 7 7 6 6 6 5 5 5 5
10 10 9 9 9 9 8 8 8 8 7 7 6 5 5 6 5 5 5 5 4 4
8 7 7 7 7 7 7 7 7 7 6 6 6 5 5 5 5 5 4 4 4 3
5 5 5 5 5 5 5 5 5 6 6 5 5 5 5 4 4 4 4 3 2 2
5 5 5 5 5 4 4 4 4 4 5 5 5 5 4 4 2 2 2 2 2 0
4 4 4 4 4 4 4 4 4 4 4 4 4 4 4 4 2 1 1 0 1 0

GFSNIL_850_temp_204.txt.gz
Temp
15 15 14 14 15 14 15 15 15 15 15 14 14 13 13 13 12 12 12 11 11 11
14 14 14 15 15 15 15 15 15 14 14 14 13 13 12 13 12 12 12 12 11 11
15 15 15 15 15 15 15 15 15 15 14 13 13 12 12 11 11 11 10 11 10 10
16 16 16 15 15 14 14 14 14 14 14 14 13 13 13 11 11 10 10 10 10 9
15 15 14 14 14 14 14 14 13 13 13 13 13 12 11 11 10 10 9 9 9 9
13 13 13 13 13 13 13 12 12 12 12 11 10 11 10 10 9 8 8 8 8 8
12 12 12 12 11 11 11 11 11 11 10 10 10 9 9 9 9 8 7 7 7 7
10 10 11 11 11 10 10 10 10 10 10 9 9 8 8 7 7 7 6 6 6 6
9 9 9 9 10 10 10 10 9 9 9 9 8 8 7 6 5 6 6 6 6 6
8 7 7 8 9 9 9 9 8 8 7 7 7 7 6 6 5 5 5 5 5 5
7 7 7 7 8 7 7 7 6 7 6 6 7 6 6 5 5 5 5 5 4 4
7 7 7 7 6 6 5 6 6 6 6 5 6 6 5 5 5 5 5 4 4 3
6 6 6 5 5 5 5 5 5 5 5 6 5 5 5 4 4 5 4 4 3 2
5 5 4 4 4 4 5 5 5 5 5 5 4 4 4 4 4 4 3 3 3 3

GFSNIL_850_temp_207.txt.gz
Temp
15 15 15 16 16 16 15 15 15 14 14 15 16 15 14 14 14 14 13 13 12 11
15 14 14 14 14 14 14 15 15 15 15 15 15 15 15 14 13 13 12 12 11 11
14 15 14 15 14 15 15 15 15 14 14 15 14 14 14 13 12 12 11 11 11 10
14 14 14 14 14 14 14 14 14 14 14 14 14 14 13 13 12 11 11 10 10 10
13 13 13 13 13 13 14 14 13 13 13 13 13 13 13 13 12 11 11 10 9 9
12 12 13 14 14 13 13 13 13 13 13 12 12 12 12 12 12 11 11 11 9 9
11 11 11 12 12 12 12 12 12 12 12 12 12 12 11 11 10 10 9 8 8 8
11 11 12 12 12 12 11 11 11 11 11 11 12 11 10 9 8 8 9 9 7 6
10 10 10 10 10 11 11 11 11 11 11 11 10 10 9 8 7 7 6 5 6 6
9 10 10 10 9 9 9 8 8 8 9 9 8 8 7 7 6 6 6 6 6 6
9 9 9 9 8 8 7 6 8 8 7 7 6 6 6 6 6 6 6 5 5 5
9 8 8 7 7 7 8 7 7 6 6 6 6 5 5 5 5 5 5 5 5 5
6 6 7 6 7 6 6 6 6 6 6 6 6 5 4 4 4 5 5 5 5 5
4 4 5 6 6 5 5 5 5 5 5 5 5 5 5 5 4 4 4 4 4 5

GFSNIL_850_temp_210.txt.gz
Temp
16 15 15 15 15 15 15 15 14 14 14 14 15 15 15 15 14 13 13 12 12 11
15 15 15 14 14 14 15 15 14 14 14 14 13 13 13 13 12 12 11 12 11 10
14 14 14 14 14 14 14 14 13 13 13 13 13 13 13 13 13 13 13 13 12 11
14 13 13 13 13 13 14 13 13 13 13 13 13 14 14 13 13 13 12 12 12 11
13 13 13 13 13 13 13 13 13 13 14 14 13 13 13 13 13 13 12 12 12 11
12 12 12 12 12 13 13 12 12 12 12 12 13 13 13 12 13 13 13 12 10 10
11 10 11 11 12 12 12 12 11 11 12 11 11 11 12 12 12 11 11 10 10 9
10 9 9 9 10 10 11 11 11 11 11 11 11 11 11 11 11 10 10 10 9 8
9 9 9 10 10 10 10 10 11 10 10 10 10 10 10 10 10 10 9 9 8 8
8 9 9 10 10 10 10 10 10 10 10 10 10 10 9 10 8 8 8 8 7 7
7 8 8 9 9 9 9 9 9 9 8 7 7 8 9 7 7 7 7 6 6 6
7 8 8 7 7 8 7 7 7 6 7 7 7 7 6 6 6 6 6 5 5 5
7 7 7 7 7 6 6 5 6 6 7 7 7 6 6 5 5 5 5 5 5 4
7 7 7 6 6 6 5 4 4 5 5 5 5 5 5 5 5 5 5 5 5 4

GFSNIL_850_temp_213.txt.gz
Temp
18 18 17 17 17 17 17 16 15 15 15 14 14 14 14 14 14 14 13 13 13 12
17 17 17 16 16 16 15 15 14 14 14 14 14 14 14 13 13 13 13 12 12 12
16 16 16 16 16 15 14 14 13 13 13 13 13 13 13 13 13 12 13 13 12 11
15 15 15 15 14 14 13 13 13 13 13 12 12 12 12 13 13 14 13 13 12 12
14 15 14 14 14 14 13 13 12 12 12 12 12 12 13 13 13 13 13 13 13 12
14 14 14 14 13 13 12 12 12 11 12 12 12 12 12 12 12 12 11 11 11 11
13 13 13 13 12 12 12 11 11 11 11 11 11 11 11 11 10 10 11 11 11 11
12 12 12 11 11 10 10 10 10 10 10 10 10 10 10 11 10 10 10 10 9 9
10 10 10 10 9 9 9 9 9 10 10 10 10 10 9 8 8 8 8 8 8 8
10 9 9 9 8 9 9 9 9 9 9 9 8 8 8 8 7 7 7 8 8 7
10 9 8 8 8 8 9 8 8 8 7 7 7 6 6 6 5 7 8 7 6 6
9 8 8 8 7 7 7 7 6 6 5 5 5 4 3 5 6 7 7 6 6 6
8 7 7 7 7 6 5 5 5 6 5 4 3 3 2 4 5 6 6 6 6 6
7 7 6 6 6 6 6 5 5 5 4 4 3 3 4 4 5 5 5 5 5 5

GFSNIL_850_temp_216.txt.gz
Temp
19 18 18 18 17 18 17 17 17 17 16 16 16 15 15 14 14 14 14 14 14 13
19 18 18 17 17 17 17 17 16 16 16 16 16 15 15 15 14 14 13 13 13 13
18 17 17 17 17 17 17 16 16 15 15 15 15 14 14 14 13 13 13 13 13 13
17 17 16 16 16 16 16 16 15 15 14 14 14 13 13 13 13 12 12 12 12 12
17 16 16 15 14 15 15 14 14 13 13 13 13 13 13 12 12 12 11 11 12 12
16 15 14 14 15 14 14 14 13 13 13 13 13 12 12 11 11 11 12 12 12 11
15 14 14 14 14 14 14 14 13 12 12 12 12 11 10 11 11 11 11 10 10 9
14 13 13 13 13 13 13 12 12 12 11 11 10 10 10 10 10 10 9 10 9 9
12 13 13 12 12 12 12 11 11 10 9 9 9 9 9 9 9 9 9 9 8 7
13 12 12 11 11 11 10 9 9 8 9 8 8 8 8 7 7 7 7 6 6 5
12 11 11 10 9 9 8 8 8 8 8 7 6 6 6 6 6 6 5 4 3 3
12 11 10 9 8 8 8 7 7 7 6 5 5 6 6 6 5 5 4 2 1 3
11 11 10 9 8 8 7 7 6 5 5 6 6 5 5 5 4 4 3 2 2 4
10 10 9 8 6 6 6 5 5 5 5 5 5 4 4 4 3 2 1 2 3 4